Main page
METAR-TAF:

METAR-TAF

Airports :

Pembrey, Wales

latitude: 51-43N, longitude: 004-22W, elevation: 3 m

Current weather observation

The report was made 1 hour and 2 minutes ago, at 03:50 UTC
Wind 27 kt from the West
Temperature 10°C
Humidity 76%
Pressure 1012 hPa
Visibility 10 km or more

METAR: EGOP 220350Z AUTO 28027KT 9999 // FEW044/// 10/06 Q1012

Time: 05:52 (04:52 UTC)


TAF: missing

Weather observations and forecasts of more than 4000 airports (METAR and TAF reports).

The available stations are represented by yellow and red dots on the map.

Hover mouse over dot to see the name of the station.

Then click to see weather observations and forecasts.

To change the map : click on the green buttons with a black cross to zoom in, on the green button with a dash to zoom out, or on the green arrows for adjacent maps.


METAR-TAF: